www.pogodaiklimat.ru

Погода и климат >> Архив погоды >> Бразилия >> >> Сурубин


ПОГОДА в Сурубине

  • Прогноз погоды в Сурубине
  • Монитор погоды в Сурубине

АРХИВ ПОГОДЫ в Сурубине

Время (UTC), дата Ветер
(напр.,м/с)
 
Видим.   Явления Облачность Т
(С)
Тd
(С)
f
(%)
Тe
(С)
Тes
(С)
Комфортность P
(гПа)
Po
(гПа)
Тmin
(С)
Tmax
(С)
R
(мм)
R24
(мм)
S
(см)
01 12.09 ЮЗ 2
{5}
н/о н/о +21.3 +18.8 86 +26 +26 душно 1017.4 968.8
02 12.09 ЮЗ 2
{4}
н/о н/о +20.6 +18.2 86 +25 +25 комфорт 1017.1 968.4
03 12.09 Ю 2
{3}
н/о н/о +20.2 +17.9 87 +24 +24 комфорт 1016.4 967.7
04 12.09 Ю 1
{2}
н/о н/о +20.1 +18.1 88 +24 +24 комфорт 1016.0 967.3
05 12.09 Ю 1
{2}
н/о н/о +20.3 +18.4 89 +25 +25 комфорт 1015.9 967.2
06 12.09 Ю 2
{3}
н/о н/о +20.5 +18.4 88 +25 +25 комфорт 1015.7 967.1
07 12.09 Ю 2
{3}
н/о н/о +20.1 +18.0 88 +24 +24 комфорт 1015.8 967.1
08 12.09 Ю 1
{3}
н/о н/о +20.3 +18.3 88 +25 +25 комфорт 1016.6 967.9
09 12.09 Ю 1
{2}
н/о н/о +20.7 +18.6 88 +26 +26 душно 1017.1 968.4
10 12.09 Ю 2
{3}
н/о н/о +22.4 +19.1 82 +28 +28 душно 1016.9 968.5
11 12.09 ЮЗ 3
{5}
н/о н/о +23.5 +18.5 74 +28 +28 душно 1017.0 968.8
12 12.09 ЮЗ 4
{5}
н/о н/о +25.8 +18.7 65 +31 +31 очень
душно
1016.7 968.9
13 12.09 ЮЗ 3
{5}
н/о н/о +26.6 +17.7 58 +31 +31 душно 1016.3 968.6
14 12.09 ЮЗ 3
{5}
н/о н/о +28.7 +18.4 54 +34 +34 очень
душно
1015.0 967.7
15 12.09 ЮЗ 3
{5}
н/о н/о +28.4 +17.2 51 +32 +32 душно 1014.2 966.9
18 12.09 ЮЗ 3
{5}
н/о н/о +27.6 +17.5 54 +32 +32 очень
душно
1013.2 965.8
19 12.09 З 4
{5}
н/о н/о +26.1 +15.9 53 +29 +29 жарко 1013.7 966.1
20 12.09 З 3
{5}
н/о н/о +23.9 +18.0 70 +28 +28 душно 1014.8 966.8
21 12.09 З 2
{4}
н/о н/о +22.4 +18.6 79 +28 +28 душно 1015.9 967.6
22 12.09 З 2
{4}
н/о н/о +21.3 +18.3 83 +26 +26 душно 1017.0 968.4
23 12.09 ЮЗ 1
{3}
н/о н/о +20.5 +17.9 85 +25 +25 комфорт 1017.9 969.2
00 13.09 ЮЗ 1
{2}
н/о н/о +19.9 +17.9 88 +24 +24 комфорт 1018.6 969.7
01 13.09 Ю 1
{2}
н/о н/о +20.4 +18.5 89 +25 +25 комфорт 1018.5 969.7
02 13.09 Ю 1
{2}
н/о н/о +20.6 +18.6 88 +26 +26 душно 1018.0 969.3
03 13.09 Ю 1
{2}
н/о н/о +20.4 +18.4 88 +25 +25 комфорт 1017.3 968.6
04 13.09 ЮЗ 2
{3}
н/о н/о +20.7 +18.8 89 +26 +26 душно 1016.7 968.1
05 13.09 Ю 1
{3}
н/о н/о +20.1 +18.4 90 +24 +24 комфорт 1016.5 967.8
06 13.09 Ю 1
{2}
н/о н/о +19.5 +18.0 91 +23 +23 комфорт 1016.3 967.5
07 13.09 Ю 2
{2}
н/о н/о +19.1 +17.7 92 +22 +22 комфорт 1016.7 967.8
08 13.09 Ю 1
{2}
н/о н/о +19.0 +17.7 92 +22 +22 комфорт 1017.3 968.4
09 13.09 Ю 2
{2}
н/о н/о +20.0 +18.7 92 +24 +24 комфорт 1017.6 968.8
10 13.09 ЮЗ 2
{3}
н/о н/о +22.2 +19.2 83 +28 +28 душно 1017.5 969.1
11 13.09 ЮЗ 3
{4}
н/о н/о +25.0 +18.2 66 +29 +29 душно 1017.7 969.7
12 13.09 З 2
{5}
н/о н/о +24.8 +17.2 63 +29 +29 душно 1017.7 969.7
13 13.09 ЮЗ 3
{5}
н/о н/о +27.3 +17.3 54 +31 +31 душно 1016.9 969.3
14 13.09 З 3
{5}
н/о н/о +25.8 +17.1 59 +30 +30 душно 1016.4 968.6
15 13.09 З 2
{5}
н/о н/о +27.2 +17.5 55 +31 +31 душно 1015.2 967.7
16 13.09 З 3
{4}
н/о н/о +26.7 +16.9 55 +30 +30 душно 1014.4 966.8
17 13.09 З 2
{4}
н/о н/о +28.4 +17.7 52 +33 +33 очень
душно
1013.3 966.0
18 13.09 З 3
{4}
н/о н/о +27.0 +17.8 57 +31 +31 душно 1013.2 965.7
19 13.09 З 3
{4}
н/о н/о +26.2 +17.9 60 +31 +31 очень
душно
1013.5 965.9
20 13.09 З 2
{4}
н/о н/о +24.2 +17.6 67 +28 +28 душно 1014.2 966.2
22 13.09 З 2
{3}
н/о н/о +21.7 +18.6 83 +27 +27 душно 1015.9 967.5
00 14.09 З 1
{2}
н/о н/о +20.5 +18.8 90 +25 +25 комфорт 1017.4 968.7
01 14.09 З 1
{2}
н/о н/о +20.4 +18.9 91 +25 +25 комфорт 1017.5 968.8
02 14.09 З 1
{2}
н/о н/о +20.0 +18.5 91 +24 +24 комфорт 1017.2 968.4
03 14.09 З 1
{2}
н/о н/о +20.2 +18.9 92 +25 +25 комфорт 1016.7 968.0
04 14.09 ЮЗ 2
{3}
н/о н/о +20.3 +19.0 92 +25 +25 комфорт 1016.3 967.6
05 14.09 Ю 1
{3}
н/о н/о +20.3 +19.0 92 +25 +25 комфорт 1016.2 967.5
06 14.09 Ю 1
{2}
н/о н/о +20.2 +19.0 93 +25 +25 комфорт 1016.1 967.4
07 14.09 ЮЗ 2
{3}
н/о н/о +20.4 +19.1 92 +25 +25 комфорт 1016.4 967.7
08 14.09 Ю 1
{3}
н/о н/о +19.8 +18.6 93 +24 +24 комфорт 1016.8 968.0
09 14.09 Ю 1
{2}
н/о н/о +20.2 +19.0 93 +25 +25 комфорт 1017.1 968.4
10 14.09 ЮЗ 2
{3}
н/о н/о +22.6 +20.4 87 +29 +29 очень
душно
1017.2 968.8
11 14.09 Ю 3
{4}
н/о н/о +22.9 +18.1 74 +28 +28 душно 1017.5 969.2
12 14.09 ЮЗ 3
{4}
н/о н/о +26.0 +18.4 63 +31 +31 очень
душно
1017.0 969.2
13 14.09 ЮЗ 3
{5}
н/о н/о +27.0 +16.8 54 +31 +31 душно 1016.5 968.9
15 14.09 ЮЗ 3
{5}
н/о н/о +28.2 +15.8 47 +31 +31 душно 1013.8 966.5
16 14.09 ЮЗ 2
{5}
н/о н/о +29.0 +16.4 47 +32 +32 душно 1013.1 965.9
17 14.09 З 3
{5}
н/о н/о +28.2 +16.0 48 +31 +31 душно 1012.8 965.5
18 14.09 З 3
{5}
н/о н/о +27.2 +15.7 49 +30 +30 душно 1012.7 965.3
19 14.09 З 3
{5}
н/о н/о +26.2 +15.9 53 +29 +29 жарко 1013.2 965.6
20 14.09 З 2
{5}
н/о н/о +24.2 +17.4 66 +28 +28 душно 1014.1 966.1
21 14.09 З 2
{4}
н/о н/о +22.6 +17.6 73 +28 +28 душно 1014.9 966.7
22 14.09 З 2
{4}
н/о н/о +21.5 +17.7 79 +26 +26 душно 1015.9 967.4
23 14.09 З 2
{3}
н/о н/о +20.6 +17.8 84 +25 +25 комфорт 1017.0 968.3
00 15.09 З 2
{3}
н/о н/о +20.2 +18.1 88 +24 +24 комфорт 1017.7 968.9
01 15.09 З 2
{2}
н/о н/о +19.9 +18.1 89 +24 +24 комфорт 1017.8 969.0
02 15.09 З 1
{2}
н/о н/о +19.5 +17.8 90 +23 +23 комфорт 1017.8 968.9
03 15.09 ЮЗ 1
{2}
н/о н/о +19.1 +17.6 91 +22 +22 комфорт 1017.0 968.1
04 15.09 Ю 1
{2}
н/о н/о +18.6 +17.1 91 +21 +21 комфорт 1016.6 967.6
05 15.09 Ю 1
{2}
н/о н/о +18.5 +17.0 91 +20 +20 1016.4 967.4
06 15.09 Ю 1
{2}
н/о н/о +18.5 +17.1 92 +20 +20 1016.5 967.5
07 15.09 Ю 1
{2}
н/о н/о +17.9 +16.5 92 +19 +19 1016.7 967.6
08 15.09 Ю 1
{2}
н/о н/о +17.8 +16.4 92 +19 +19 1017.1 968.0
09 15.09 Ю 1
{2}
н/о н/о +19.4 +18.0 92 +23 +23 комфорт 1017.5 968.6
10 15.09 Ю 2
{2}
н/о н/о +22.0 +18.0 78 +27 +27 душно 1017.6 969.1
11 15.09 Ю 2
{4}
н/о н/о +24.4 +18.2 68 +29 +29 душно 1017.5 969.4
12 15.09 ЮЗ 3
{4}
н/о н/о +26.8 +17.5 57 +31 +31 душно 1017.0 969.3
13 15.09 ЮЗ 2
{4}
н/о н/о +27.5 +17.2 53 +31 +31 душно 1016.3 968.8
14 15.09 З 3
{4}
н/о н/о +27.7 +17.3 53 +32 +32 очень
душно
1015.3 967.8
15 15.09 ЮЗ 3
{4}
н/о н/о +28.1 +16.2 48 +31 +31 душно 1013.9 966.6
16 15.09 ЮЗ 3
{5}
н/о н/о +30.1 +16.1 43 +33 +33 душно 1012.7 965.7
17 15.09 З 3
{5}
н/о н/о +29.0 +16.4 47 +32 +32 душно 1012.3 965.2
18 15.09 З 3
{5}
н/о н/о +27.0 +15.8 50 +30 +30 душно 1012.8 965.3
19 15.09 З 3
{6}
н/о н/о +25.9 +16.0 54 +29 +29 душно 1013.4 965.7
20 15.09 З 3
{5}
н/о н/о +24.7 +16.2 59 +28 +28 душно 1014.1 966.2
21 15.09 З 2
{4}
н/о н/о +22.3 +16.2 68 +26 +26 жарко 1015.2 966.9
22 15.09 З 2
{4}
н/о н/о +21.3 +16.1 72 +25 +25 комфорт 1016.1 967.6
23 15.09 З 2
{3}
н/о н/о +20.4 +16.6 79 +24 +24 комфорт 1016.8 968.1
00 16.09 З 2
{3}
н/о н/о +19.6 +16.8 84 +23 +23 комфорт 1017.2 968.4
01 16.09 З 1
{2}
н/о н/о +19.0 +16.7 87 +22 +22 комфорт 1017.8 968.8
02 16.09 штиль 0
{1}
н/о н/о +18.8 +16.9 89 +20 +20 1017.4 968.4
03 16.09 Ю 1
{1}
н/о н/о +18.5 +16.7 89 +20 +20 1016.5 967.5
04 16.09 Ю 1
{1}
н/о н/о +18.7 +16.9 89 +21 +21 комфорт 1015.9 967.0
05 16.09 Ю 2
{4}
н/о н/о +19.1 +17.5 90 +22 +22 комфорт 1015.5 966.7
06 16.09 З 1
{3}
н/о н/о +19.4 +17.9 91 +23 +23 комфорт 1015.9 967.1
07 16.09 З 1
{2}
н/о н/о +19.4 +18.0 92 +23 +23 комфорт 1016.0 967.2
08 16.09 Ю 2
{4}
н/о н/о +19.4 +18.1 92 +22 +22 комфорт 1016.5 967.7
09 16.09 ЮЗ 2
{3}
н/о н/о +20.0 +18.7 92 +24 +24 комфорт 1017.2 968.4
10 16.09 ЮЗ 2
{4}
н/о н/о +22.1 +19.8 87 +28 +28 душно 1017.4 969.0
11 16.09 ЮЗ 3
{4}
н/о н/о +23.5 +17.9 71 +28 +28 душно 1017.6 969.4
12 16.09 З 3
{5}
н/о н/о +26.5 +17.5 58 +31 +31 душно 1017.1 969.4
13 16.09 З 3
{5}
н/о н/о +26.5 +17.8 59 +31 +31 душно 1016.8 969.1
14 16.09 ЮЗ 2
{4}
н/о н/о +27.5 +17.2 53 +31 +31 душно 1015.6 968.1
15 16.09 ЮЗ 3
{5}
н/о н/о +28.4 +16.8 49 +32 +32 душно 1014.5 967.2
16 16.09 ЮЗ 3
{5}
н/о н/о +28.7 +16.7 48 +32 +32 душно 1013.4 966.2
17 16.09 ЮЗ 3
{6}
н/о н/о +27.8 +14.3 44 +30 +30 жарко 1012.9 965.6
18 16.09 ЮЗ 3
{6}
н/о н/о +28.2 +14.2 42 +30 +30 жарко 1012.9 965.6
19 16.09 ЮЗ 2
{5}
н/о н/о +27.3 +15.6 49 +30 +30 душно 1013.3 965.9
21 16.09 З 3
{4}
н/о н/о +22.7 +17.2 71 +28 +28 душно 1015.0 966.8
22 16.09 З 2
{4}
н/о н/о +21.4 +17.3 77 +25 +25 комфорт 1016.1 967.6
23 16.09 З 2
{4}
н/о н/о +20.4 +17.7 84 +25 +25 комфорт 1017.0 968.3
00 17.09 З 1
{3}
н/о н/о +20.1 +17.7 86 +24 +24 комфорт 1017.4 968.6
01 17.09 З 1
{2}
н/о н/о +19.9 +17.8 88 +24 +24 комфорт 1017.4 968.6
02 17.09 ЮЗ 2
{3}
н/о н/о +19.9 +18.0 89 +23 +23 комфорт 1017.1 968.3
03 17.09 штиль 0
{3}
н/о н/о +19.6 +17.8 89 +22 +22 комфорт 1016.7 967.9
04 17.09 Ю 1
{1}
н/о н/о +19.1 +17.4 90 +22 +22 комфорт 1016.0 967.1
05 17.09 ЮЗ 1
{1}
н/о н/о +19.1 +17.7 92 +22 +22 комфорт 1015.6 966.8
06 17.09 Ю 1
{2}
н/о н/о +19.5 +17.9 90 +23 +23 комфорт 1015.6 966.8
07 17.09 Ю 1
{2}
н/о н/о +19.5 +17.7 89 +23 +23 комфорт 1015.7 966.9
08 17.09 Ю 1
{3}
н/о н/о +19.2 +17.3 89 +22 +22 комфорт 1016.3 967.4
09 17.09 Ю 1
{2}
н/о н/о +20.5 +18.3 87 +26 +26 душно 1016.6 967.9
10 17.09 ЮЗ 2
{2}
н/о н/о +21.8 +18.7 83 +27 +27 душно 1016.9 968.4
11 17.09 ЮЗ 3
{4}
н/о н/о +23.2 +18.6 75 +29 +29 душно 1017.1 968.8
12 17.09 ЮЗ 2
{4}
н/о н/о +25.3 +19.2 69 +30 +30 душно 1016.6 968.7
13 17.09 З 2
{4}
н/о н/о +27.2 +18.3 58 +32 +32 очень
душно
1015.7 968.1
14 17.09 З 2
{4}
н/о н/о +27.3 +17.6 55 +31 +31 душно 1014.9 967.4
15 17.09 З 3
{4}
н/о н/о +26.5 +18.7 62 +31 +31 душно 1014.4 966.8
16 17.09 З 3
{5}
н/о н/о +22.2 +20.0 87 +28 +28 душно 1014.9 966.6
17 17.09 З 2
{4}
н/о н/о +22.4 +19.7 85 +28 +28 душно 1014.4 966.1
18 17.09 З 1
{4}
н/о н/о +22.2 +20.5 90 +29 +29 очень
душно
1014.2 965.9
19 17.09 ЮЗ 1
{3}
н/о н/о +22.1 +20.0 88 +28 +28 душно 1014.4 966.1
20 17.09 З 3
{4}
н/о н/о +21.3 +19.5 89 +26 +26 душно 1015.0 966.5
21 17.09 З 1
{4}
н/о н/о +20.7 +19.2 91 +26 +26 душно 1015.5 966.9
22 17.09 З 2
{4}
н/о н/о +20.8 +19.4 92 +26 +26 душно 1015.8 967.2
23 17.09 З 2
{4}
н/о н/о +20.8 +19.4 92 +26 +26 душно 1016.3 967.7
00 18.09 З 2
{4}
н/о н/о +20.7 +19.3 92 +26 +26 душно 1016.7 968.1
01 18.09 З 2
{3}
н/о н/о +20.7 +19.5 93 +26 +26 душно 1016.6 968.0
02 18.09 З 1
{4}
н/о н/о +20.4 +19.2 93 +25 +25 комфорт 1016.2 967.5
03 18.09 З 1
{2}
н/о н/о +20.5 +19.4 93 +26 +26 душно 1015.5 966.9
05 18.09 З 1
{3}
н/о н/о +20.2 +19.1 93 +25 +25 комфорт 1014.7 966.1
06 18.09 ЮЗ 2
{2}
н/о н/о +20.3 +19.2 93 +25 +25 комфорт 1014.7 966.1
07 18.09 З 2
{3}
н/о н/о +20.3 +19.2 93 +25 +25 комфорт 1014.6 966.0
08 18.09 ЮЗ 1
{2}
н/о н/о +20.5 +19.3 93 +26 +26 душно 1014.9 966.3
09 18.09 З 2
{4}
н/о н/о +20.6 +19.5 93 +26 +26 душно 1015.6 967.0
10 18.09 З 2
{4}
н/о н/о +20.6 +19.5 93 +26 +26 душно 1015.9 967.3
11 18.09 З 2
{3}
н/о н/о +21.5 +20.3 93 +27 +27 душно 1015.9 967.4
12 18.09 З 3
{4}
н/о н/о +22.1 +20.5 91 +28 +28 душно 1015.9 967.5
13 18.09 З 3
{4}
н/о н/о +24.4 +20.1 77 +30 +30 очень
душно
1015.3 967.3
14 18.09 З 3
{4}
н/о н/о +26.5 +19.1 64 +32 +32 очень
душно
1014.3 966.7
15 18.09 З 3
{5}
н/о н/о +28.1 +17.9 54 +33 +33 очень
душно
1013.4 966.1
16 18.09 З 3
{5}
н/о н/о +26.9 +18.1 59 +32 +32 очень
душно
1012.9 965.4
18 18.09 З 3
{6}
н/о н/о +27.4 +18.7 59 +32 +32 очень
душно
1012.3 964.9
19 18.09 З 3
{5}
н/о н/о +25.8 +17.9 62 +30 +30 душно 1013.0 965.3
20 18.09 З 3
{5}
н/о н/о +23.9 +17.9 69 +28 +28 душно 1013.6 965.6
21 18.09 З 2
{4}
н/о н/о +22.1 +18.1 78 +27 +27 душно 1014.4 966.1
22 18.09 З 2
{3}
н/о н/о +21.0 +17.9 82 +26 +26 душно 1015.1 966.6
23 18.09 З 1
{2}
н/о н/о +20.4 +18.0 86 +25 +25 комфорт 1016.0 967.3
00 19.09 З 2
{2}
н/о н/о +20.3 +18.3 88 +25 +25 комфорт 1016.6 967.9
01 19.09 З 1
{2}
н/о н/о +19.9 +18.2 90 +24 +24 комфорт 1016.7 967.9

 

Местоположение метеостанции Сурубин (, Бразилия): широта -7.85 долгота -35.78 высота над уровнем моря 420 м.

В архиве по умолчанию представлена погода в Сурубине за последнюю неделю. Архивные данные за месяц целиком и за предыдущие месяцы, начиная с января 2011 года, Вы можете получить, выбрав интересующий диапазон дат из раскрывающегося списка и нажав кнопку "Ввод!".


*Определитесь, кто Вы:
робот инопланетянин человек

Внимание! Время в таблицах - всемирное. Для получения местного времени необходимо прибавить поправку, которая равна -3 ч.

Смотрите также архив погоды в соседних городах и на ближайших метеорологических станциях:

Погода в Каруару (, Бразилия) (48 км)
Погода в Кабасейрасе (Параиба, Бразилия) (69 км)
Погода в Кампина-Гранде (Параиба, Бразилия) (70 км)
Погода в Кампина-Гранде (Параиба, Бразилия) (71 км)
Погода в Пальмаресе (, Бразилия) (94 км)
Погода в Ресифе (, Бразилия) (94 км)
Погода в Арейа (Параиба, Бразилия) (98 км)
Погода в Ресифе (, Бразилия) (105 км)
Погода в Жуан-Песоа (Параиба, Бразилия) (129 км)
Погода в Гараньюнсе (, Бразилия) (140 км)

Пояснения к столбцам:

Ветер - указаны скорость ветра в м/с - средняя за 10 мин, порывы в срок и между сроками (в фигурных скобках) и направление, откуда дует ветер: С - северный, СВ - северо-восточный, В - восточный, ЮВ - юго-восточный, Ю - южный, ЮЗ - юго-западный, З - западный, СЗ - северо-западный.
Видимость - горизонтальная дальность видимости в метрах или километрах. При видимости от 1 до 10 км при отсутствии осадков обычно наблюдается дымка, при ухудшении видимости до 1 км и менее - туман. В сухую погоду видимость может ухудшаться дымом, пылью или мглою.
Явления - указаны атмосферные явления, наблюдавшиеся в срок или в последний час перед сроком; фигурными скобками обозначены явления, наблюдавшиеся между сроками (за 1-3 часа до срока); квадратными скобками обозначены град или гололедные отложения с указанием их диаметра в мм.
Облачность - указаны через наклонную черту общая и нижняя облачность в баллах и высота нижней границы облаков в метрах; квадратными скобками обозначены формы облаков: Ci - перистые, Cs - перисто-слоистые, Cc - перисто-кучевые, Ac - высококучевые, As - высокослоистые, Sc - слоисто-кучевые, Ns - слоисто-дождевые, Cu - кучевые, Cb - кучево-дождевые. Подробнее классификацию облаков см. в Атласе облаков (PDF).
T - Температура воздуха - температура, измеренная на высоте 2 м над землей.
Td - Температура точки росы - температура, при понижении до которой содержащийся в воздухе водяной пар достигнет насыщения.
f - Относительная влажность воздуха - влажноcть воздуха, измеренная на высоте 2 м над землей.
Te - Эффективная температура - температура, которую ощущает одетый по сезону человек в тени. Характеристика душности погоды. При расчете учитывается влияние влажности воздуха и скорости ветра на теплоощущения человека.
Tes - Эффективная температура на солнце - температура, которую ощущает человек, с поправкой на солнечный нагрев. Характеристика знойности погоды. Зависит от высоты солнца над горизонтом, облачности и скорости ветра. Ночью, в пасмурную погоду, а также при ветре 12 м/с и более поправка равна нулю.
P - Атмосферное давление - приведенное к уровню моря атмосферное давление.
Po - Атмосферное давление - измеренное на уровне метеостанции атмосферное давление.
Tmin - Минимальная температура - минимум температуры воздуха на высоте 2 м над землей.
Tmax - Максимальная температура - максимум температуры воздуха на высоте 2 м над землей.
R - Количество осадков - Количество выпавших осадков за период времени, мм. При наведении курсора мыши на число - период времени, за который выпало указанное количество осадков.
R24 - Количество осадков - Количество выпавших осадков за 24 часа, мм.
S - Снежный покров - Высота снежного покрова, см. При наведении курсора мыши на число - состояние снежного покрова и степень покрытия местности в баллах.